| time (UTC) | temp C | wind direction | speed KPH | gust KPH | rain 1hr cm | rain 24hr cm | rain mn cm | humidity % | barometer mb |
| 20260508131547 | 9 | 0 | 0.0 | 4.8 | 0.00 | 0.03 | 0.00 | 87 | 1018.7 |
| 20260508130047 | 8 | 136 | 0.0 | 0.0 | 0.00 | 0.03 | 0.00 | 92 | 1018.5 |
| 20260508124543 | 7 | 0 | 0.0 | 0.0 | 0.00 | 0.03 | 0.00 | 96 | 1018.4 |
| 20260508123051 | 7 | 0 | 0.0 | 0.0 | 0.00 | 0.03 | 0.00 | 97 | 1018.4 |
| 20260508121551 | 6 | 0 | 0.0 | 0.0 | 0.00 | 0.03 | 0.00 | 97 | 1018.4 |
| 20260508120101 | 6 | 0 | 0.0 | 0.0 | 0.00 | 0.03 | 0.00 | 97 | 1018.3 |
| 20260508114547 | 5 | 0 | 0.0 | 0.0 | 0.00 | 0.03 | 0.00 | 97 | 1018.1 |
| 20260508113050 | 5 | 0 | 0.0 | 0.0 | 0.00 | 0.03 | 0.00 | 97 | 1017.9 |
| 20260508111546 | 5 | 0 | 0.0 | 0.0 | 0.00 | 0.03 | 0.00 | 97 | 1017.7 |
| 20260508104545 | 5 | 0 | 0.0 | 0.0 | 0.00 | 0.03 | 0.00 | 96 | 1017.3 |
| 20260508103049 | 5 | 0 | 0.0 | 0.0 | 0.00 | 0.03 | 0.00 | 94 | 1017.1 |
| 20260508101545 | 6 | 0 | 0.0 | 0.0 | 0.00 | 0.03 | 0.00 | 95 | 1016.9 |
| 20260508094549 | 6 | 0 | 0.0 | 0.0 | 0.00 | 0.03 | 0.00 | 95 | 1016.8 |
| 20260508093050 | 6 | 0 | 0.0 | 0.0 | 0.00 | 0.03 | 0.00 | 95 | 1016.7 |
| 20260508091607 | 6 | 0 | 0.0 | 0.0 | 0.00 | 0.03 | 0.00 | 94 | 1016.7 |
| 20260508090049 | 6 | 0 | 0.0 | 0.0 | 0.00 | 0.03 | 0.00 | 94 | 1016.6 |
| 20260508084548 | 5 | 0 | 0.0 | 0.0 | 0.00 | 0.03 | 0.00 | 93 | 1016.5 |
| 20260508083049 | 6 | 0 | 0.0 | 0.0 | 0.00 | 0.03 | 0.00 | 92 | 1016.6 |
| 20260508081608 | 6 | 0 | 0.0 | 0.0 | 0.00 | 0.03 | 0.00 | 91 | 1016.7 |
| 20260508080059 | 6 | 0 | 0.0 | 0.0 | 0.00 | 0.03 | 0.00 | 90 | 1016.7 |
| 20260508074545 | 7 | 0 | 0.0 | 0.0 | 0.00 | 0.03 | 0.00 | 90 | 1016.6 |
| 20260508073050 | 7 | 0 | 0.0 | 0.0 | 0.00 | 0.03 | 0.00 | 90 | 1016.7 |
| 20260508071547 | 7 | 0 | 0.0 | 0.0 | 0.00 | 0.03 | 0.00 | 89 | 1016.7 |
| 20260508070053 | 7 | 0 | 0.0 | 0.0 | 0.00 | 0.03 | 0.00 | 88 | 1016.8 |
| 20260508064546 | 8 | 0 | 0.0 | 0.0 | 0.00 | 0.03 | 0.00 | 86 | 1016.8 |
| 20260508063050 | 8 | 0 | 0.0 | 0.0 | 0.00 | 0.03 | 0.00 | 84 | 1016.8 |
| 20260508061553 | 8 | 0 | 0.0 | 0.0 | 0.00 | 0.03 | 0.00 | 84 | 1017.1 |
| 20260508060105 | 8 | 0 | 0.0 | 0.0 | 0.00 | 0.03 | 0.00 | 85 | 1017.0 |
| 20260508054626 | 8 | 0 | 0.0 | 0.0 | 0.00 | 0.03 | 0.00 | 86 | 1017.2 |
| 20260508053052 | 8 | 0 | 0.0 | 0.0 | 0.00 | 0.03 | 0.00 | 86 | 1017.3 |
| 20260508051543 | 8 | 0 | 0.0 | 0.0 | 0.00 | 0.03 | 0.00 | 85 | 1017.1 |
| 20260508050047 | 8 | 0 | 0.0 | 0.0 | 0.00 | 0.03 | 0.00 | 84 | 1017.2 |
| 20260508044548 | 9 | 0 | 0.0 | 0.0 | 0.00 | 0.03 | 0.03 | 83 | 1017.2 |
| 20260508043049 | 10 | 0 | 0.0 | 0.0 | 0.00 | 0.03 | 0.03 | 81 | 1017.2 |
| 20260508041545 | 10 | 0 | 0.0 | 0.0 | 0.00 | 0.03 | 0.03 | 78 | 1017.2 |
| 20260508040047 | 10 | 0 | 0.0 | 0.0 | 0.00 | 0.03 | 0.03 | 78 | 1017.1 |
| 20260508034551 | 10 | 0 | 0.0 | 0.0 | 0.00 | 0.05 | 0.03 | 77 | 1017.0 |
| 20260508033048 | 11 | 0 | 0.0 | 0.0 | 0.00 | 0.05 | 0.03 | 74 | 1017.0 |
| 20260508031553 | 11 | 0 | 0.0 | 0.0 | 0.00 | 0.05 | 0.03 | 70 | 1016.9 |
| 20260508030050 | 11 | 0 | 0.0 | 0.0 | 0.00 | 0.05 | 0.03 | 70 | 1016.9 |
| 20260508024604 | 12 | 0 | 0.0 | 0.0 | 0.00 | 0.05 | 0.03 | 72 | 1017.0 |
| 20260508023047 | 12 | 0 | 0.0 | 0.0 | 0.00 | 0.05 | 0.03 | 70 | 1016.8 |
| 20260508021545 | 12 | 0 | 0.0 | 0.0 | 0.00 | 0.05 | 0.03 | 70 | 1016.8 |
| 20260508020051 | 12 | 0 | 0.0 | 0.0 | 0.00 | 0.05 | 0.03 | 68 | 1016.7 |
| 20260508014547 | 12 | 0 | 0.0 | 0.0 | 0.00 | 0.05 | 0.03 | 68 | 1016.4 |
| 20260508013051 | 13 | 0 | 0.0 | 0.0 | 0.00 | 0.05 | 0.03 | 69 | 1016.0 |
| 20260508011550 | 13 | 0 | 0.0 | 0.0 | 0.00 | 0.05 | 0.03 | 64 | 1015.9 |
| 20260508010051 | 14 | 0 | 0.0 | 0.0 | 0.00 | 0.05 | 0.03 | 63 | 1015.7 |
| 20260508004547 | 14 | 0 | 0.0 | 0.0 | 0.00 | 0.05 | 0.03 | 62 | 1015.6 |
| 20260508003052 | 15 | 0 | 0.0 | 0.0 | 0.00 | 0.05 | 0.03 | 61 | 1015.5 |
| 20260508001556 | 15 | 0 | 0.0 | 0.0 | 0.00 | 0.05 | 0.03 | 60 | 1015.3 |
| 20260508000050 | 16 | 0 | 0.0 | 4.8 | 0.00 | 0.05 | 0.03 | 57 | 1015.1 |
| 20260507234546 | 16 | 0 | 0.0 | 4.8 | 0.00 | 0.08 | 0.03 | 58 | 1014.9 |
| 20260507233046 | 16 | 0 | 0.0 | 1.6 | 0.00 | 0.08 | 0.03 | 56 | 1014.7 |
| 20260507231548 | 17 | 319 | 0.0 | 6.4 | 0.00 | 0.08 | 0.03 | 56 | 1014.9 |
| 20260507230047 | 17 | 0 | 0.0 | 11.3 | 0.00 | 0.08 | 0.03 | 55 | 1014.9 |
| 20260507224549 | 17 | 0 | 0.0 | 8.0 | 0.00 | 0.08 | 0.03 | 56 | 1015.0 |
| 20260507223046 | 17 | 305 | 0.0 | 8.0 | 0.00 | 0.08 | 0.03 | 56 | 1015.0 |
| 20260507221545 | 17 | 284 | 1.6 | 9.7 | 0.00 | 0.08 | 0.03 | 55 | 1015.0 |
| 20260507220046 | 18 | 0 | 0.0 | 11.3 | 0.00 | 0.08 | 0.03 | 57 | 1015.0 |
| 20260507214549 | 18 | 0 | 3.2 | 14.5 | 0.00 | 0.08 | 0.03 | 53 | 1014.9 |
| 20260507213047 | 18 | 0 | 1.6 | 4.8 | 0.00 | 0.08 | 0.03 | 53 | 1014.9 |
| 20260507211553 | 18 | 315 | 3.2 | 12.9 | 0.00 | 0.08 | 0.03 | 55 | 1014.6 |
| 20260507210052 | 18 | 277 | 4.8 | 12.9 | 0.00 | 0.08 | 0.03 | 56 | 1014.5 |
| 20260507204549 | 18 | 238 | 4.8 | 11.3 | 0.00 | 0.08 | 0.03 | 55 | 1014.6 |
| 20260507203058 | 18 | 360 | 1.6 | 12.9 | 0.00 | 0.08 | 0.03 | 57 | 1014.6 |
| 20260507201551 | 17 | 305 | 3.2 | 12.9 | 0.00 | 0.08 | 0.03 | 56 | 1014.6 |
| 20260507200050 | 17 | 336 | 3.2 | 8.0 | 0.00 | 0.08 | 0.03 | 59 | 1014.6 |
| 20260507194548 | 17 | 360 | 3.2 | 14.5 | 0.00 | 0.08 | 0.03 | 58 | 1014.8 |
| 20260507193052 | 17 | 294 | 1.6 | 11.3 | 0.00 | 0.08 | 0.03 | 62 | 1014.7 |
| 20260507191553 | 17 | 13 | 3.2 | 12.9 | 0.00 | 0.08 | 0.03 | 60 | 1014.9 |
| 20260507190048 | 17 | 52 | 3.2 | 8.0 | 0.00 | 0.08 | 0.03 | 63 | 1015.0 |
| 20260507184546 | 17 | 263 | 1.6 | 9.7 | 0.00 | 0.08 | 0.03 | 65 | 1015.0 |
| 20260507183052 | 16 | 0 | 1.6 | 6.4 | 0.00 | 0.08 | 0.03 | 66 | 1015.1 |
| 20260507181553 | 16 | 283 | 3.2 | 12.9 | 0.00 | 0.08 | 0.03 | 65 | 1015.4 |
| 20260507180059 | 16 | 348 | 3.2 | 9.7 | 0.00 | 0.08 | 0.03 | 65 | 1015.5 |
| 20260507174602 | 16 | 351 | 1.6 | 14.5 | 0.00 | 0.08 | 0.03 | 68 | 1015.4 |
| 20260507173049 | 16 | 9 | 0.0 | 6.4 | 0.00 | 0.08 | 0.03 | 65 | 1015.5 |
| 20260507171603 | 16 | 0 | 3.2 | 8.0 | 0.00 | 0.08 | 0.03 | 63 | 1015.4 |
| 20260507170048 | 15 | 0 | 1.6 | 9.7 | 0.00 | 0.08 | 0.03 | 70 | 1015.1 |
| 20260507164549 | 16 | 0 | 1.6 | 12.9 | 0.00 | 0.10 | 0.03 | 70 | 1015.8 |
| 20260507163050 | 16 | 340 | 4.8 | 14.5 | 0.00 | 0.10 | 0.03 | 65 | 1015.7 |
| 20260507161556 | 16 | 73 | 3.2 | 14.5 | 0.00 | 0.10 | 0.03 | 66 | 1015.7 |
| 20260507160053 | 15 | 191 | 1.6 | 8.0 | 0.03 | 0.10 | 0.03 | 70 | 1016.0 |
| 20260507154545 | 14 | 337 | 3.2 | 9.7 | 0.03 | 0.13 | 0.03 | 72 | 1016.0 |
| 20260507153053 | 15 | 42 | 1.6 | 11.3 | 0.03 | 0.13 | 0.03 | 73 | 1015.9 |
| 20260507151549 | 15 | 0 | 1.6 | 6.4 | 0.03 | 0.13 | 0.03 | 75 | 1015.8 |
| 20260507150047 | 13 | 63 | 3.2 | 9.7 | 0.00 | 0.10 | 0.00 | 78 | 1015.8 |
| 20260507144546 | 13 | 87 | 0.0 | 8.0 | 0.00 | 0.15 | 0.00 | 85 | 1015.7 |
| 20260507143050 | 12 | 0 | 0.0 | 3.2 | 0.00 | 0.15 | 0.00 | 85 | 1015.7 |
| 20260507141553 | 12 | 0 | 0.0 | 4.8 | 0.00 | 0.15 | 0.00 | 87 | 1015.5 |
| 20260507140058 | 11 | 0 | 0.0 | 0.0 | 0.00 | 0.15 | 0.00 | 89 | 1015.5 |
| 20260507134545 | 11 | 0 | 0.0 | 6.4 | 0.00 | 0.20 | 0.00 | 92 | 1015.3 |
| 20260507133045 | 11 | 0 | 0.0 | 8.0 | 0.00 | 0.20 | 0.00 | 94 | 1015.3 |